Location: Madingley
(52.2167°N, 0.0500°E)
Time: 16:12:23
(UTC+00:00)

Cosmos 1461 - Pass Details

Date: 15 May 2026
Orbit: 422 x 475 km, 65.0° (Epoch: 10 June)

Event Time Altitude Azimuth Distance (km) Brightness Sun altitude
Rises 21:21:41 0° 222° (SW) 2,534 6.1 -11.2°
Reaches altitude 10° 21:23:49 10° 223° (SW) 1,656 5.2 -11.4°
Maximum altitude 21:27:31 85° 313° (NW) 487 2.6 -11.8°
Drops below altitude 10° 21:31:13 10° 42° (NE) 1,649 5.4 -12.1°
Sets 21:33:20 0° 43° (NE) 2,523 6.4 -12.3°
